一网星座-0675星 (ONEWEB-0675)

导读

ONEWEB-0675是一颗由英国发射的卫星,于2023年3月9日顺利进入太空,它隶属于一网(OneWeb)卫星星座系统。该星座旨在构建全球低轨卫星互联网,为全球不同区域提供高速宽带互联服务,这颗卫星的成功入轨进一步完善了一网星座的全球网络覆盖布局,推动了全球卫星互联网服务能力的提升。

Basic Information
目录编号:
55834
目录名称:
ONEWEB-0675
国际标识:
2023-029AQ
轨道中心:
EARTH
卫星名称:
一网星座-0675星
卫星全名:
一网星座-0675星 (ONEWEB-0675)
卫星状态:
在轨 (已飞行1283 天)
发射日期:
2023-03-09 UTC
国别 :
英国 (GB)
星等 :
--
This satellite is enrolled in the Space Conjunction Data Service (SCDS) and the current flight risk assessment level is: No High Risk
Orbit Information
数据来源 国际轨道数据 AOE轨道数据
星历时间 2026-09-11T23:19:18+0800
14小时前
查看轨道信息
2026-09-11T00:00:00+0800
1天前
查看轨道信息
半长轴 7563.905km 7563.907km
偏心率 0.0001698 0.0001476
轨道倾角 87.912° 87.915°
近地点辐角 94.795° 81.196°
升交点赤经 287.754° 287.953°
平近点角 265.338° 344.887°
近地点 1184.483km 1184.653km
远地点 1187.053km 1186.887km
周期 109.114分钟 109.114分钟
每日圈数 13.197258 13.197253
Detailed Information
平衡模式:
三轴稳定
覆盖范围:
全球
运营商:
一网卫星公司
运营商所在国:
英国
制造商(研发单位):
一网卫星公司
制造商所在国:
英国
使用方式:
暂无
Satellite Introduction
OneWeb卫星网络由648颗重约125公斤的微型卫星组成,运行在1200公里的轨道上。 每颗卫星都能够提供至少每秒8千兆位的吞吐量,以使用其高吞吐量的Ku频段有效载荷为家庭和移动平台提供互联网接入。该卫星仍在工作。
2D Orbit Map
3D Orbit Map
Orbit Altitude Analysis Chart
Orbit Inclination Analysis Chart
Orbit Comprehensive Analysis Chart
View Comprehensive Chart
Conjunction Data List
Event ID Objects TCA Miss Dist (km) Collision Risk Probability Collision Risk Index (CRI) Action
CDM_260905-142005-583408-143922
2026-09-05T
14:20:11+0000
0.222 km
中距离
5.596698E-4 高风险 0.9
CDM_260914-062602-123305-583423
2026-09-14T
06:26:12+0000
1.558 km
极远距离
5.760105E-6 低风险 0.5
Miss Distance Evolution Trend with All Objects
Collision Probability Evolution Trend with All Objects